TimeCDT,TemperatureF,Dew PointF,Humidity,Sea Level PressureIn,VisibilityMPH,Wind Direction,Wind SpeedMPH,Gust SpeedMPH,PrecipitationIn,Events,Conditions,WindDirDegrees,DateUTC
12:53 AM,54.0,51.1,90,30.04,10.0,East,3.5,-,N/A,,Clear,90,2011-10-11 05:53:00
1:53 AM,52.0,48.9,89,30.04,10.0,Calm,Calm,-,N/A,,Clear,0,2011-10-11 06:53:00
2:53 AM,52.0,48.9,89,30.03,10.0,East,4.6,-,N/A,,Clear,80,2011-10-11 07:53:00
3:53 AM,54.0,51.1,90,30.03,10.0,ENE,5.8,-,N/A,,Clear,70,2011-10-11 08:53:00
4:53 AM,57.2,51.8,82,30.04,10.0,East,4.6,-,N/A,,Overcast,80,2011-10-11 09:53:00
5:53 AM,57.9,53.1,84,30.04,10.0,East,4.6,-,N/A,,Overcast,90,2011-10-11 10:53:00
6:53 AM,59.0,53.1,81,30.04,10.0,Calm,Calm,-,N/A,,Overcast,0,2011-10-11 11:53:00
7:53 AM,60.1,54.0,80,30.04,10.0,Calm,Calm,-,N/A,,Overcast,0,2011-10-11 12:53:00
8:53 AM,64.4,55.4,73,30.04,10.0,Calm,Calm,-,N/A,,Overcast,0,2011-10-11 13:53:00
9:53 AM,72.0,55.0,55,30.02,10.0,East,4.6,-,N/A,,Mostly Cloudy,90,2011-10-11 14:53:00
10:53 AM,77.0,53.1,43,30.01,10.0,Calm,Calm,-,N/A,,Clear,0,2011-10-11 15:53:00
11:53 AM,78.1,53.1,42,29.99,10.0,Calm,Calm,-,N/A,,Scattered Clouds,0,2011-10-11 16:53:00
12:53 PM,79.0,53.1,40,29.97,10.0,Calm,Calm,-,N/A,,Mostly Cloudy,0,2011-10-11 17:53:00
2:53 PM,78.8,51.8,39,29.94,10.0,East,5.8,-,N/A,,Mostly Cloudy,100,2011-10-11 19:53:00
3:53 PM,81.0,50.0,34,29.91,10.0,ESE,6.9,-,N/A,,Clear,110,2011-10-11 20:53:00
4:53 PM,80.1,48.9,34,29.90,10.0,SE,4.6,-,N/A,,Partly Cloudy,130,2011-10-11 21:53:00
5:53 PM,75.9,50.0,40,29.89,10.0,SE,4.6,-,N/A,,Partly Cloudy,130,2011-10-11 22:53:00
6:53 PM,69.1,48.0,47,29.90,10.0,ESE,3.5,-,N/A,,Clear,120,2011-10-11 23:53:00
7:53 PM,66.0,46.9,50,29.91,10.0,ESE,5.8,-,N/A,,Clear,120,2011-10-12 00:53:00
8:53 PM,62.1,46.9,58,29.92,10.0,ESE,5.8,-,N/A,,Clear,120,2011-10-12 01:53:00
9:53 PM,60.1,46.9,62,29.93,10.0,SE,5.8,-,N/A,,Clear,140,2011-10-12 02:53:00
10:53 PM,59.0,48.0,67,29.91,10.0,ESE,4.6,-,N/A,,Clear,120,2011-10-12 03:53:00
11:53 PM,57.9,48.9,72,29.90,10.0,SE,4.6,-,N/A,,Partly Cloudy,130,2011-10-12 04:53:00